Date String (YYYY-MM-DD hh:mm:ss) UTC,Instrument flags,Ambient pressure (hPa),Sample flow (lpm),Bypass flow (lpm),Sample temperature (°C),Ambient temperature (°C),ASC tube jacket temperature (°C),LED temperature (°C),Box temperature (°C),Sample RH (%),Span deviation,Mass concentration (μg/m³),Mass concentration (μg/m³),Mass concentration (μg/m³)
DateTimeUTC,F1_M11,P_M11,Q1_M11,Q2_M11,T1_M11,T2_M11,T3_M11,T4_M11,T5_M11,U1_M11,ZSPAN_M11,X0_M11,X2_M11,X1_M11
2022-03-25 12:00:00,,0831.3,5.00,0.00,26.4,25.4,00.0,35.3,28.2,13.0,0000.0,0008.93,0002.32,0001.24
2022-03-25 12:01:00,,0831.3,5.00,0.00,26.3,25.4,00.0,35.3,28.2,12.9,0000.0,0009.26,0002.28,0001.24
2022-03-25 12:02:00,,0831.4,5.01,0.00,26.3,25.4,00.0,35.3,28.1,13.0,0000.0,0009.04,0002.28,0001.23
2022-03-25 12:03:00,,0831.4,5.00,0.00,26.3,25.4,00.0,35.3,28.2,13.0,0000.0,0008.99,0002.35,0001.24
2022-03-25 12:04:00,,0831.4,5.00,0.00,26.3,25.4,00.0,35.3,28.2,13.0,0000.0,0009.13,0002.36,0001.24
2022-03-25 12:05:00,,0831.4,5.01,0.00,26.3,25.4,00.0,35.3,28.1,13.0,0000.0,0009.18,0002.38,0001.24
2022-03-25 12:06:00,,0831.4,5.00,0.00,26.3,25.4,00.0,35.3,28.1,13.0,0000.0,0009.28,0002.37,0001.23
2022-03-25 12:07:00,,0831.2,4.99,0.00,26.3,25.3,00.0,35.3,28.1,13.0,0000.0,0009.05,0002.37,0001.23
2022-03-25 12:08:00,,0831.2,5.00,0.00,26.3,25.3,00.0,35.3,28.2,13.0,0000.0,0009.06,0002.30,0001.24
2022-03-25 12:09:00,,0831.2,5.01,0.00,26.3,25.4,00.0,35.3,28.1,13.0,0000.0,0009.14,0002.29,0001.23
2022-03-25 12:10:00,,0831.3,5.01,0.00,26.3,25.4,00.0,35.3,28.1,13.0,0000.0,0009.15,0002.31,0001.23
2022-03-25 12:11:00,,0831.4,4.99,0.00,26.3,25.3,00.0,35.3,28.2,12.9,0000.0,0009.12,0002.42,0001.24
2022-03-25 12:12:00,,0831.4,5.00,0.00,26.3,25.3,00.0,35.3,28.2,13.0,0000.0,0008.50,0002.49,0001.24
2022-03-25 12:13:00,,0831.4,5.00,0.00,26.3,25.4,00.0,35.3,28.1,13.0,0000.0,0008.43,0002.51,0001.24
2022-03-25 12:14:00,,0831.4,5.01,0.00,26.3,25.4,00.0,35.3,28.1,13.0,0000.0,0007.64,0002.51,0001.25
2022-03-25 12:15:00,,0831.4,4.99,0.00,26.3,25.3,00.0,35.3,28.2,13.0,0000.0,0007.84,0002.51,0001.24
2022-03-25 12:16:00,,0831.4,5.01,0.00,26.3,25.4,00.0,35.3,28.2,13.0,0000.0,0008.55,0002.55,0001.24
2022-03-25 12:17:00,,0831.4,5.00,0.00,26.3,25.4,00.0,35.3,28.1,13.0,0000.0,0007.97,0002.51,0001.24
2022-03-25 12:18:00,,0831.4,5.00,0.00,26.3,25.4,00.0,35.3,28.1,13.1,0000.0,0008.19,0002.50,0001.23
2022-03-25 12:19:00,,0831.4,5.00,0.00,26.3,25.4,00.0,35.3,28.1,13.0,0000.0,0009.10,0002.48,0001.23
2022-03-25 12:20:00,,0831.4,5.00,0.00,26.3,25.4,00.0,35.3,28.1,13.1,0000.0,0009.94,0002.61,0001.24
2022-03-25 12:21:00,,0831.4,5.00,0.00,26.3,25.3,00.0,35.3,28.1,13.1,0000.0,0010.37,0002.62,0001.25
2022-03-25 12:22:00,,0831.4,5.00,0.00,26.3,25.3,00.0,35.3,28.2,13.0,0000.0,0010.34,0002.62,0001.23
2022-03-25 12:23:00,,0831.4,5.00,0.00,26.3,25.3,00.0,35.3,28.1,13.0,0000.0,0010.38,0002.61,0001.25
2022-03-25 12:24:00,,0831.4,5.00,0.00,26.3,25.3,00.0,35.3,28.1,13.0,0000.0,0010.36,0002.61,0001.26
2022-03-25 12:25:00,,0831.4,5.01,0.00,26.3,25.3,00.0,35.3,28.1,13.0,0000.0,0010.68,0002.60,0001.26
2022-03-25 12:26:00,,0831.4,4.99,0.00,26.3,25.3,00.0,35.3,28.1,13.0,0000.0,0011.00,0002.60,0001.27
2022-03-25 12:27:00,,0831.4,4.98,0.00,26.3,25.3,00.0,35.3,28.1,13.0,0000.0,0010.31,0002.56,0001.25
2022-03-25 12:28:00,,0831.4,5.00,0.00,26.3,25.3,00.0,35.3,28.1,13.0,0000.0,0010.44,0002.60,0001.26
2022-03-25 12:29:00,,0831.4,5.00,0.00,26.3,25.3,00.0,35.3,28.1,13.0,0000.0,0010.33,0002.66,0001.28
2022-03-25 12:30:00,,0831.4,5.00,0.00,26.3,25.3,00.0,35.3,28.1,13.0,0000.0,0009.78,0002.78,0001.29
2022-03-25 12:31:00,,0831.4,5.00,0.00,26.3,25.3,00.0,35.3,28.1,13.0,0000.0,0009.35,0002.75,0001.29
2022-03-25 12:32:00,,0831.4,5.00,0.00,26.3,25.3,00.0,35.3,28.1,13.0,0000.0,0009.65,0002.81,0001.30
2022-03-25 12:33:00,,0831.4,5.01,0.00,26.3,25.3,00.0,35.3,28.1,13.0,0000.0,0010.01,0002.83,0001.32
2022-03-25 12:34:00,,0831.4,5.00,0.00,26.3,25.3,00.0,35.3,28.1,13.0,0000.0,0010.69,0002.79,0001.33
2022-03-25 12:35:00,,0831.4,5.00,0.00,26.3,25.3,00.0,35.3,28.1,13.0,0000.0,0011.56,0002.87,0001.32
2022-03-25 12:36:00,,0831.4,5.00,0.00,26.3,25.3,00.0,35.3,28.1,13.0,0000.0,0012.22,0002.93,0001.32
2022-03-25 12:37:00,,0831.4,5.00,0.00,26.3,25.3,00.0,35.3,28.1,13.0,0000.0,0011.51,0002.90,0001.32
2022-03-25 12:38:00,,0831.4,4.99,0.00,26.3,25.3,00.0,35.3,28.1,13.0,0000.0,0011.39,0002.91,0001.33
2022-03-25 12:39:00,,0831.4,4.98,0.00,26.3,25.3,00.0,35.3,28.1,13.0,0000.0,0011.43,0002.95,0001.35
2022-03-25 12:40:00,,0831.4,5.00,0.00,26.3,25.3,00.0,35.3,28.1,13.0,0000.0,0011.04,0002.88,0001.35
2022-03-25 12:41:00,,0831.4,5.01,0.00,26.3,25.3,00.0,35.3,28.1,12.9,0000.0,0010.55,0002.79,0001.34
2022-03-25 12:42:00,,0831.4,4.99,0.00,26.3,25.3,00.0,35.3,28.1,13.0,0000.0,0010.61,0002.77,0001.34
2022-03-25 12:43:00,,0831.4,4.99,0.00,26.3,25.3,00.0,35.3,28.1,13.0,0000.0,0010.43,0002.69,0001.33
2022-03-25 12:44:00,,0831.4,5.00,0.00,26.3,25.3,00.0,35.3,28.1,13.0,0000.0,0010.35,0002.67,0001.33
2022-03-25 12:45:00,,0831.4,5.01,0.00,26.3,25.3,00.0,35.3,28.1,13.0,0000.0,0009.95,0002.68,0001.34
2022-03-25 12:46:00,,0831.5,4.99,0.00,26.3,25.3,00.0,35.3,28.1,13.0,0000.0,0010.52,0002.69,0001.35
2022-03-25 12:47:00,,0831.5,5.00,0.00,26.3,25.3,00.0,35.3,28.1,13.0,0000.0,0009.43,0002.62,0001.36
2022-03-25 12:48:00,,0831.6,5.00,0.00,26.3,25.3,00.0,35.2,28.1,13.0,0000.0,0009.97,0002.62,0001.36
2022-03-25 12:49:00,,0831.6,5.00,0.00,26.3,25.3,00.0,35.3,28.1,13.0,0000.0,0010.16,0002.73,0001.38
2022-03-25 12:50:00,,0831.6,5.01,0.00,26.3,25.3,00.0,35.3,28.1,13.0,0000.0,0010.26,0002.77,0001.37
2022-03-25 12:51:00,,0831.6,5.00,0.00,26.3,25.3,00.0,35.3,28.1,12.9,0000.0,0010.33,0002.80,0001.37
2022-03-25 12:52:00,,0831.6,5.00,0.00,26.3,25.3,00.0,35.3,28.1,12.9,0000.0,0010.75,0002.88,0001.37
2022-03-25 12:53:00,,0831.5,5.00,0.00,26.3,25.3,00.0,35.3,28.1,12.9,0000.0,0010.76,0002.84,0001.37
2022-03-25 12:54:00,,0831.6,4.98,0.00,26.3,25.3,00.0,35.3,28.1,12.9,0000.0,0010.15,0002.87,0001.37
2022-03-25 12:55:00,,0831.6,5.01,0.00,26.3,25.3,00.0,35.3,28.1,12.9,0000.0,0009.96,0002.87,0001.38
2022-03-25 12:56:00,,0831.6,4.99,0.00,26.3,25.3,00.0,35.3,28.1,12.9,0000.0,0009.55,0002.89,0001.38
2022-03-25 12:57:00,,0831.6,5.01,0.00,26.3,25.3,00.0,35.3,28.1,12.9,0000.0,0008.54,0002.83,0001.37
2022-03-25 12:58:00,,0831.6,5.01,0.00,26.3,25.3,00.0,35.3,28.1,12.9,0000.0,0008.28,0002.78,0001.37
2022-03-25 12:59:00,,0831.7,5.00,0.00,26.3,25.3,00.0,35.3,28.1,12.9,0000.0,0007.71,0002.83,0001.39
